COSMOS 627 DEB, 45504

Orbit data source: Space-Track

COSMOS 627 DEB, 45504 is space debris in LEO originally from a launch on Sat, 29 Dec 1973 UTC launched from the Plesetsk Missile And Space Complex (PKMTR). Debris objects in space refer to the collection of defunct objects orbiting the Earth. Examples of debris include non-operational satellites, rocket bodies, and fragments generated from explosions, collisions, or faulty payload assembly.

Loading next visibility...
Identifier
45504, 1973-109C
Orbit
LEO
Country
Flag of CISCIS
Related business
Manufacturer
Unknown
Mission
Spacecraft
Bus & Motor
Unknown
Mass
Unknown
Launch date (UTC)
1973-12-29 (52 years ago)
Launch vehicle
Unknown
Launch site
Plesetsk Missile And Space Complex (PKMTR)
Object type
Payload
Rocket body
Debris
Shape & HBR
Unknown shape, 0.1 m
Radar Cross Section
Small (<0.1 m²)

Expand to show TLE details & history
Last TLE update: 2 days ago

TLE from 2 days ago
0 COSMOS 627 DEB
1 45504U 73109C   25301.24823864  .00000316  00000-0  31810-3 0  9992
2 45504  82.9498 289.6120 0029792 250.0006 109.7941 13.74296814592013
Epoch: 2025-10-28T05:57Z
TLE epoch observation values (Epoch: 2025-10-28T05:57:27.818Z)
Latitude
-0.00003°
Longitude
163.40763°
Altitude
994.571 km
Speed
7.351 km/s
True Right ascension
19h 18m 26s
True Declination
0° 00' 00"
Sunlit
Object was in daylight at epoch
Visualization orbit readout
Latitude
Unknown
Longitude
Unknown
Altitude
Unknown
Speed
Unknown
Apparent Right ascension
Unknown
Apparent Declination
Unknown
Sunlit
N/A
Visualization observer readout
Local Sidereal Time
04:27:20
Azimuth
Unknown
Elevation
Unknown
Doppler factor
Unknown
Orbital elements
Apogee altitude
1,003.26 km
Perigee altitude
959.409 km
Semi-major axis
7,359.472 km
Eccentricity
0.00298
Inclination
82.9498°
RAAN
289.612°
Arg. of periapsis
250.0006°
True anomaly
110.11491°
Mean anomaly
109.7941°
Eccentric anomaly
109.95455°
Mean motion
3.43774 °/min
Orbital period
104.72 mins
BSTAR
0.0003181
Loading maneuver chart data...
Computing Atmospheric mass density...
Loading historical data...
Loading historical data...
Loading historical data...
Loading historical data...
Loading historical data...
Loading historical data...
Loading historical data...
Other satellites on launch #109 in the year 1973 (1973-12-29 UTC)

Documentation

Showing up to 5 results
|